This demonstration page uses our WeatherBlox Daily Observations layout. Learn more.

Left ArrowRight Arrow

41.12389, -100.76542

Hourly Observations for January 14, 2019

Temp ( °F °C ) Dew Point ( °F °C ) Humidity (%) Winds ( mph kmh ) Pressure ( in mb ) Visibility ( mi km ) Precip ( " mm )
12:05 am 00:05 Cloudy with Mist and Fog 29 -1.7 27 -2.8 92 92 W 7 11 30.42 1030 2 3 0.00 0.00
12:12 am 00:12 Cloudy with Mist and Fog 29 -1.7 27 -2.8 92 92 W 7 11 30.42 1030 3 4 0.00 0.00
12:29 am 00:29 Cloudy with Mist and Fog 29 -1.7 27 -2.8 92 92 W 6 9 30.39 1029 2 2 0.00 0.00
12:53 am 00:53 Cloudy with Mist and Fog 29 -1.7 28 -2.2 96 96 WSW 7 11 30.34 1028 2 3 0.00 0.00
1:03 am 01:03 Cloudy with Mist and Fog 29 -1.7 27 -2.8 92 92 W 9 15 30.39 1029 3 4 0.00 0.00
1:15 am 01:15 Cloudy with Mist and Fog 28 -2.2 27 -2.8 96 96 WSW 9 15 30.39 1029 2 2 0.00 0.00
1:27 am 01:27 Cloudy with Mist and Fog 28 -2.2 27 -2.8 96 96 WSW 9 15 30.39 1029 1 2 0.00 0.00
1:46 am 01:46 Cloudy with Mist and Fog 28 -2.2 27 -2.8 96 96 WSW 9 15 30.39 1029 2 2 0.00 0.00
1:53 am 01:53 Cloudy with Mist and Fog 28 -2.2 27 -2.8 96 96 WSW 10 17 30.34 1027 1 2 0.00 0.00
2:03 am 02:03 Cloudy with Mist and Fog 28 -2.2 27 -2.8 96 96 WSW 9 15 30.39 1029 2 3 0.00 0.00
2:21 am 02:21 Cloudy with Mist and Fog 28 -2.2 27 -2.8 96 96 W 9 15 30.39 1029 3 4 0.00 0.00
2:28 am 02:28 Cloudy with Mist and Fog 28 -2.2 26 -3.3 92 92 WSW 10 17 30.39 1029 1 2 0.00 0.00
2:53 am 02:53 Cloudy with Mist and Fog 28 -2.2 27 -2.8 96 96 W 7 11 30.34 1028 2 2 0.00 0.00
3:15 am 03:15 Cloudy with Mist and Fog 28 -2.2 27 -2.8 96 96 W 6 9 30.39 1029 2 3 0.00 0.00
3:23 am 03:23 Cloudy with Mist and Fog 28 -2.2 27 -2.8 96 96 W 6 9 30.39 1029 2 2 0.00 0.00
3:34 am 03:34 Cloudy with Mist and Fog 28 -2.2 27 -2.8 96 96 W 7 11 30.39 1029 1 2 0.00 0.00
3:53 am 03:53 Cloudy with Mist and Fog 28 -2.2 27 -2.8 96 96 W 10 17 30.34 1027 1 2 0.00 0.00
4:08 am 04:08 Cloudy with Mist and Fog 28 -2.2 26 -3.3 92 92 W 9 15 30.36 1028 2 2 0.00 0.00
4:20 am 04:20 Cloudy with Mist and Fog 27 -2.8 26 -3.3 96 96 WSW 9 15 30.36 1028 1 2 0.00 0.00
4:28 am 04:28 Cloudy with Mist and Fog 27 -2.8 26 -3.3 96 96 W 9 15 30.36 1028 2 3 0.00 0.00
4:35 am 04:35 Cloudy with Mist and Fog 27 -2.8 26 -3.3 96 96 WNW 7 11 30.36 1028 3 4 0.00 0.00
4:46 am 04:46 Cloudy with Mist and Fog 27 -2.8 26 -3.3 96 96 W 8 13 30.36 1028 1 2 0.00 0.00
4:53 am 04:53 Cloudy with Mist and Fog 27 -2.8 26 -3.3 96 96 W 8 13 30.32 1027 1 2 0.00 0.00
5:30 am 05:30 Cloudy with Mist and Fog 26 -3.3 25 -3.9 96 96 WNW 7 11 30.39 1029 2 3 0.00 0.00
5:47 am 05:47 Cloudy with Mist and Fog 27 -3 25 -4 93 93 W 7 11 30.36 1028 1 2 0.00 0.00
5:48 am 05:48 Cloudy with Mist and Fog 26 -3.3 25 -3.9 96 96 W 8 13 30.32 1027 1 2 0.00 0.00
5:55 am 05:55 Cloudy with Mist and Fog 26 -3.3 25 -3.9 96 96 W 7 11 30.39 1029 2 3 0.00 0.00
6:18 am 06:18 Cloudy with Mist and Fog 26 -3.3 24 -4.4 92 92 W 8 13 30.39 1029 3 5 0.00 0.00
6:28 am 06:28 Cloudy with Mist and Fog 25 -3.9 24 -4.4 96 96 W 8 13 30.39 1029 3 4 0.00 0.00
6:38 am 06:38 Cloudy with Mist and Fog 25 -3.9 23 -5 92 92 WNW 8 13 30.39 1029 4 6 0.00 0.00
6:53 am 06:53 Cloudy with Mist and Fog 24 -4.4 22 -5.6 91 91 W 7 11 30.33 1027 2 3 0.00 0.00
7:12 am 07:12 Cloudy with Mist and Fog 23 -5 22 -5.6 96 96 WSW 5 7 30.39 1029 1 2 0.00 0.00
7:25 am 07:25 Cloudy with Mist and Fog 23 -5 21 -6.1 92 92 WSW 5 7 30.39 1029 2 3 0.00 0.00
7:33 am 07:33 Mostly Cloudy with Mist and Fog 22 -5.6 20 -6.7 92 92 WSW 5 7 30.42 1030 6 10 0.00 0.00
7:53 am 07:53 Partly Cloudy 20 -6.7 18 -7.8 92 92 W 3 6 30.34 1027 10 16 0.00 0.00
8:53 am 08:53 Sunny 21 -6.1 18 -7.8 88 88 WNW 3 6 30.33 1027 10 16 0.00 0.00
9:13 am 09:13 Sunny with Mist and Fog 23 -5 20 -6.7 88 88 W 6 9 30.39 1029 2 3 0.00 0.00
9:27 am 09:27 Sunny 24 -4.4 21 -6.1 88 88 WNW 7 11 30.39 1029 10 16 0.00 0.00
9:53 am 09:53 Sunny 24 -4.4 21 -6.1 88 88 W 7 11 30.33 1027 10 16 0.00 0.00
10:53 am 10:53 Sunny 29 -1.7 23 -5 78 78 WNW 6 9 30.33 1027 10 16 0.00 0.00
11:53 am 11:53 Sunny 37 2.8 23 -5 57 57 W 9 15 30.29 1026 10 16 0.00 0.00
12:53 pm 12:53 Sunny 42 5.6 23 -5 47 47 WNW 8 13 30.25 1024 10 16 0.00 0.00
1:53 pm 13:53 Sunny 46 7.8 22 -5.6 38 38 W 10 17 30.21 1023 10 16 0.00 0.00
2:53 pm 14:53 Sunny 48 8.9 22 -5.6 36 36 W 12 19 30.20 1023 10 16 0.00 0.00
3:53 pm 15:53 Sunny 48 8.9 17 -8.3 29 29 WNW 10 17 30.19 1023 10 16 0.00 0.00
4:53 pm 16:53 Sunny 44 6.7 20 -6.7 38 38 WNW 6 9 30.20 1023 10 16 0.00 0.00
5:53 pm 17:53 Clear 36 2.2 20 -6.7 52 52 SW 5 7 30.21 1023 10 16 0.00 0.00
6:53 pm 18:53 Clear 29 -1.7 19 -7.2 66 66 Calm 30.23 1024 10 16 0.00 0.00
7:53 pm 19:53 Clear 25 -3.9 20 -6.7 81 81 Calm 30.25 1025 10 16 0.00 0.00
8:53 pm 20:53 Clear 24 -4.4 18 -7.8 77 77 NW 5 7 30.24 1024 10 16 0.00 0.00
9:53 pm 21:53 Clear 21 -6.1 17 -8.3 85 85 Calm 30.25 1024 10 16 0.00 0.00
10:53 pm 22:53 Clear 20 -6.7 16 -8.9 85 85 Calm 30.24 1024 10 16 0.00 0.00
11:53 pm 23:53 Clear 20 -6.7 17 -8.3 89 89 Calm 30.24 1024 10 16 0.00 0.00

Powered by AerisWeather